API VERSION: 1.2 API SOURCE: NASA/JPL Horizons API ******************************************************************************* JPL/HORIZONS 82P/Gehrels 3 2025-Dec-12 17:50:56 Rec #:90000865 (+COV) Soln.date: 2021-Mar-19_14:50:48 # obs: 143 (1975-2020) IAU76/J2000 helio. ecliptic osc. elements (au, days, deg., period=Julian yrs): EPOCH= 2452484.5 ! 2002-Jul-29.0000000 (TDB) RMSW= n.a. EC= .1232542077837754 QR= 3.625705145656267 TP= 2452151.7880843314 OM= 239.5914610958287 W= 227.4956617541502 IN= 1.126554815725817 A= 4.13541208620034 MA= 38.99368147129122 ADIST= 4.645119026744412 PER= 8.409814013451401 N= .117199534 ANGMOM= .034714963 DAN= 4.44255 DDN= 3.75951 L= 107.0816058 B= -.8305013 MOID= 2.64334989 TP= 2001-Aug-30.2880843314 Comet physical (GM= km^3/s^2; RAD= km): GM= n.a. RAD= .730 M1= 7.6 M2= 16.4 k1= 18.5 k2= 5. PHCOF= .030 Comet non-gravitational force model (AMRAT=m^2/kg;A1-A3=au/d^2;DT=days;R0=au): AMRAT= 0. DT= 0. A1= 0. A2= 2.868617651984E-11 A3= 0. Non-standard or simulated/proxy model: ALN= .04083733261 NK= 2.6 NM= 2. NN= 3. R0= 5. COMET comments 1: soln ref.= JPL#19, data arc: 1975-10-27 to 2020-05-20 2: k1=18.5, k2=5., phase coef.=0.03;Nongrav. accels. using CO driven g(r) ******************************************************************************* ******************************************************************************* Ephemeris / API_USER Fri Dec 12 17:50:56 2025 Pasadena, USA / Horizons ******************************************************************************* Target body name: 82P/Gehrels 3 {source: JPL#19} Center body name: Earth (399) {source: DE441} Center-site name: GEOCENTRIC ******************************************************************************* Start time : A.D. 2026-Nov-12 00:00:00.0000 UT Stop time : A.D. 2026-Nov-17 00:00:00.0000 UT Step-size : 180 minutes ******************************************************************************* Target pole/equ : undefined Target radii : 0.73 km Center geodetic : 0.0, 0.0, -6378.137 {E-lon(deg),Lat(deg),Alt(km)} Center cylindric: 0.0, 0.0, 0.0 {E-lon(deg),Dxy(km),Dz(km)} Center pole/equ : ITRF93 {East-longitude positive} Center radii : 6378.137, 6378.137, 6356.752 km {Equator_a, b, pole_c} Target primary : Sun Vis. interferer : MOON (R_eq= 1737.400) km {source: DE441} Rel. light bend : Sun {source: DE441} Rel. lght bnd GM: 1.3271E+11 km^3/s^2 Small-body perts: Yes {source: SB441-N16} Atmos refraction: NO (AIRLESS) RA format : HMS Time format : CAL Calendar mode : Mixed Julian/Gregorian EOP file : eop.251212.p260310 EOP coverage : DATA-BASED 1962-JAN-20 TO 2025-DEC-12. PREDICTS-> 2026-MAR-09 Units conversion: 1 au= 149597870.700 km, c= 299792.458 km/s, 1 day= 86400.0 s Table cut-offs 1: Elevation (-90.0deg=NO ),Airmass (>38.000=NO), Daylight (NO ) Table cut-offs 2: Solar elongation ( 0.0,180.0=NO ),Local Hour Angle( 0.0=NO ) Table cut-offs 3: RA/DEC angular rate ( 0.0=NO ) ******************************************************************************* Initial IAU76/J2000 heliocentric ecliptic osculating elements (au, days, deg.): EPOCH= 2452484.5 ! 2002-Jul-29.0000000 (TDB) RMSW= n.a. EC= .1232542077837754 QR= 3.625705145656267 TP= 2452151.7880843314 OM= 239.5914610958287 W= 227.4956617541502 IN= 1.126554815725817 Equivalent ICRF heliocentric cartesian coordinates (au, au/d): X=-3.444810952358287E+00 Y= 1.428631428111448E+00 Z= 5.391641284332591E-01 VX=-4.455416704085057E-03 VY=-7.436248627018249E-03 VZ=-3.218460612845728E-03 Comet physical (GM= km^3/s^2; RAD= km): GM= n.a. RAD= .730 M1= 7.6 M2= 16.4 k1= 18.5 k2= 5. PHCOF= .030 Comet non-gravitational force model (AMRAT=m^2/kg;A1-A3=au/d^2;DT=days;R0=au): AMRAT= 0. DT= 0. A1= 0. A2= 2.868617651984E-11 A3= 0. Non-standard or simulated/proxy model: ALN= .04083733261 NK= 2.6 NM= 2. NN= 3. R0= 5. ******************************************************************************* Date__(UT)__HR:MN r rdot ************************************************** $$SOE 2026-Nov-12 00:00 3.624188354580 -0.0128526 2026-Nov-12 03:00 3.624187448562 -0.0122451 2026-Nov-12 06:00 3.624186586411 -0.0116375 2026-Nov-12 09:00 3.624185768127 -0.0110299 2026-Nov-12 12:00 3.624184993712 -0.0104223 2026-Nov-12 15:00 3.624184263165 -0.0098147 2026-Nov-12 18:00 3.624183576488 -0.0092071 2026-Nov-12 21:00 3.624182933680 -0.0085994 2026-Nov-13 00:00 3.624182334742 -0.0079918 2026-Nov-13 03:00 3.624181779675 -0.0073842 2026-Nov-13 06:00 3.624181268479 -0.0067765 2026-Nov-13 09:00 3.624180801155 -0.0061689 2026-Nov-13 12:00 3.624180377703 -0.0055612 2026-Nov-13 15:00 3.624179998123 -0.0049536 2026-Nov-13 18:00 3.624179662417 -0.0043459 2026-Nov-13 21:00 3.624179370584 -0.0037382 2026-Nov-14 00:00 3.624179122625 -0.0031305 2026-Nov-14 03:00 3.624178918540 -0.0025228 2026-Nov-14 06:00 3.624178758331 -0.0019151 2026-Nov-14 09:00 3.624178641996 -0.0013074 2026-Nov-14 12:00 3.624178569538 -0.0006997 2026-Nov-14 15:00 3.624178540956 -0.0000920 2026-Nov-14 18:00 3.624178556251 0.0005157 2026-Nov-14 21:00 3.624178615423 0.0011234 2026-Nov-15 00:00 3.624178718473 0.0017312 2026-Nov-15 03:00 3.624178865400 0.0023389 2026-Nov-15 06:00 3.624179056207 0.0029466 2026-Nov-15 09:00 3.624179290892 0.0035544 2026-Nov-15 12:00 3.624179569456 0.0041622 2026-Nov-15 15:00 3.624179891901 0.0047699 2026-Nov-15 18:00 3.624180258225 0.0053777 2026-Nov-15 21:00 3.624180668430 0.0059855 2026-Nov-16 00:00 3.624181122516 0.0065932 2026-Nov-16 03:00 3.624181620484 0.0072010 2026-Nov-16 06:00 3.624182162333 0.0078088 2026-Nov-16 09:00 3.624182748065 0.0084166 2026-Nov-16 12:00 3.624183377679 0.0090244 2026-Nov-16 15:00 3.624184051176 0.0096322 2026-Nov-16 18:00 3.624184768556 0.0102400 2026-Nov-16 21:00 3.624185529821 0.0108479 2026-Nov-17 00:00 3.624186334969 0.0114557 $$EOE ******************************************************************************* Column meaning: TIME Times PRIOR to 1962 are UT1, a mean-solar time closely related to the prior but now-deprecated GMT. Times AFTER 1962 are in UTC, the current civil or "wall-clock" time-scale. UTC is kept within 0.9 seconds of UT1 using integer leap-seconds for 1972 and later years. Conversion from the internal Barycentric Dynamical Time (TDB) of solar system dynamics to the non-uniform civil UT time-scale requested for output has not been determined for UTC times after the next July or January 1st. Therefore, the last known leap-second is used as a constant over future intervals. Time tags refer to the UT time-scale conversion from TDB on Earth regardless of observer location within the solar system, although clock rates may differ due to the local gravity field and no analog to "UT" may be defined for that location. Any 'b' symbol in the 1st-column denotes a B.C. date. First-column blank (" ") denotes an A.D. date. CALENDAR SYSTEM Mixed calendar mode was active such that calendar dates after AD 1582-Oct-15 (if any) are in the modern Gregorian system. Dates prior to 1582-Oct-5 (if any) are in the Julian calendar system, which is automatically extended for dates prior to its adoption on 45-Jan-1 BC. The Julian calendar is useful for matching historical dates. The Gregorian calendar more accurately corresponds to the Earth's orbital motion and seasons. A "Gregorian-only" calendar mode is available if such physical events are the primary interest. NOTE: "n.a." in output means quantity "not available" at the print-time. 'r rdot' = The Sun's apparent range ("r", light-time aberrated) and range-rate ("rdot") relative to the target center, as seen by the observer. A positive "rdot" means the target center was moving away from the Sun, negative means moving toward the Sun. Units: AU and KM/S Computations by ... Solar System Dynamics Group, Horizons On-Line Ephemeris System 4800 Oak Grove Drive, Jet Propulsion Laboratory Pasadena, CA 91109 USA General site: https://ssd.jpl.nasa.gov/ Mailing list: https://ssd.jpl.nasa.gov/email_list.html System news : https://ssd.jpl.nasa.gov/horizons/news.html User Guide : https://ssd.jpl.nasa.gov/horizons/manual.html Connect : browser https://ssd.jpl.nasa.gov/horizons/app.html#/x API https://ssd-api.jpl.nasa.gov/doc/horizons.html command-line telnet ssd.jpl.nasa.gov 6775 e-mail/batch https://ssd.jpl.nasa.gov/ftp/ssd/horizons_batch.txt scripts https://ssd.jpl.nasa.gov/ftp/ssd/SCRIPTS Author : Jon.D.Giorgini@jpl.nasa.gov *******************************************************************************